Time,TemperatureF,DewpointF,PressureIn,WindDirection,WindDirectionDegrees,WindSpeedMPH,WindSpeedGustMPH,Humidity,HourlyPrecipIn,Conditions,Clouds,dailyrainin,SoftwareType,DateUTC
2013-07-11 00:07:00,61.9,56.0,29.53,West,269,0.0,2.0,81,0.00,,,0.65,weatherlink.com 1.10,2013-07-11 07:07:00,
2013-07-11 00:22:00,61.6,56.0,29.52,SW,219,3.0,3.0,81,0.00,,,0.65,weatherlink.com 1.10,2013-07-11 07:22:00,
2013-07-11 00:37:00,62.0,56.0,29.51,WSW,255,5.0,9.0,81,0.00,,,0.65,weatherlink.com 1.10,2013-07-11 07:37:00,
2013-07-11 00:52:00,61.9,56.0,29.50,WNW,302,15.0,15.0,81,0.00,,,0.65,weatherlink.com 1.10,2013-07-11 07:52:00,
2013-07-11 01:07:00,61.1,56.0,29.51,SW,222,3.0,10.0,83,0.00,,,0.65,weatherlink.com 1.10,2013-07-11 08:07:00,
2013-07-11 01:22:00,61.0,56.0,29.52,SSW,193,3.0,10.0,83,0.00,,,0.65,weatherlink.com 1.10,2013-07-11 08:22:00,
2013-07-11 01:37:00,60.7,56.0,29.51,SSW,204,4.0,5.0,83,0.00,,,0.65,weatherlink.com 1.10,2013-07-11 08:37:00,
2013-07-11 01:52:00,61.0,56.0,29.52,SSW,201,2.0,5.0,83,0.00,,,0.65,weatherlink.com 1.10,2013-07-11 08:52:00,
2013-07-11 02:07:00,61.4,56.0,29.52,SSW,202,2.0,3.0,81,0.00,,,0.65,weatherlink.com 1.10,2013-07-11 09:07:00,
2013-07-11 02:22:00,61.2,56.0,29.52,SSE,151,4.0,8.0,83,0.00,,,0.65,weatherlink.com 1.10,2013-07-11 09:22:00,
2013-07-11 02:37:00,59.3,57.0,29.51,NE,49,3.0,6.0,92,0.00,,,0.65,weatherlink.com 1.10,2013-07-11 09:37:00,
2013-07-11 02:52:00,58.9,57.0,29.50,NE,53,2.0,3.0,94,0.00,,,0.65,weatherlink.com 1.10,2013-07-11 09:52:00,
2013-07-11 03:07:00,58.6,57.0,29.48,ESE,113,0.0,0.0,95,0.00,,,0.65,weatherlink.com 1.10,2013-07-11 10:07:00,
2013-07-11 03:22:00,59.0,56.0,29.48,West,274,1.0,5.0,90,0.00,,,0.65,weatherlink.com 1.10,2013-07-11 10:22:00,
2013-07-11 03:37:00,59.5,56.0,29.47,West,262,5.0,6.0,88,0.00,,,0.65,weatherlink.com 1.10,2013-07-11 10:37:00,
2013-07-11 03:52:00,59.9,56.0,29.48,SW,215,4.0,5.0,86,0.00,,,0.65,weatherlink.com 1.10,2013-07-11 10:52:00,
2013-07-11 04:07:00,60.7,55.0,29.48,SSE,155,2.0,4.0,80,0.00,,,0.65,weatherlink.com 1.10,2013-07-11 11:07:00,
2013-07-11 04:22:00,60.7,56.0,29.49,East,86,1.0,3.0,83,0.00,,,0.65,weatherlink.com 1.10,2013-07-11 11:22:00,
2013-07-11 04:37:00,59.6,56.0,29.49,ESE,115,2.0,2.0,87,0.00,,,0.65,weatherlink.com 1.10,2013-07-11 11:37:00,
2013-07-11 04:52:00,60.0,56.0,29.49,SW,236,1.0,4.0,85,0.00,,,0.65,weatherlink.com 1.10,2013-07-11 11:52:00,
2013-07-11 05:07:00,60.4,55.0,29.50,South,169,0.0,2.0,83,0.00,,,0.65,weatherlink.com 1.10,2013-07-11 12:07:00,
2013-07-11 05:22:00,59.8,55.0,29.50,South,169,0.0,0.0,84,0.00,,,0.65,weatherlink.com 1.10,2013-07-11 12:22:00,
2013-07-11 05:37:00,59.7,55.0,29.50,South,169,0.0,1.0,85,0.00,,,0.65,weatherlink.com 1.10,2013-07-11 12:37:00,
2013-07-11 06:07:00,61.2,56.0,29.51,NE,49,0.0,1.0,82,0.00,,,0.65,weatherlink.com 1.10,2013-07-11 13:07:00,
2013-07-11 06:37:00,61.3,57.0,29.51,ENE,63,2.0,3.0,85,0.00,,,0.65,weatherlink.com 1.10,2013-07-11 13:37:00,
2013-07-11 06:52:00,62.2,57.0,29.51,NE,53,3.0,4.0,82,0.00,,,0.65,weatherlink.com 1.10,2013-07-11 13:52:00,
2013-07-11 07:22:00,63.2,57.0,29.51,NE,53,2.0,4.0,80,0.00,,,0.65,weatherlink.com 1.10,2013-07-11 14:22:00,
2013-07-11 07:37:00,63.7,58.0,29.51,NE,56,3.0,4.0,82,0.00,,,0.65,weatherlink.com 1.10,2013-07-11 14:37:00,
2013-07-11 07:52:00,63.4,60.0,29.51,NE,43,1.0,5.0,88,0.00,,,0.65,weatherlink.com 1.10,2013-07-11 14:52:00,
2013-07-11 08:07:00,63.8,59.0,29.52,NNW,333,0.0,3.0,84,0.00,,,0.65,weatherlink.com 1.10,2013-07-11 15:07:00,
2013-07-11 08:22:00,63.0,59.0,29.51,West,274,0.0,2.0,87,0.00,,,0.65,weatherlink.com 1.10,2013-07-11 15:22:00,
2013-07-11 08:52:00,63.8,60.0,29.51,NE,40,3.0,5.0,88,0.00,,,0.65,weatherlink.com 1.10,2013-07-11 15:52:00,
2013-07-11 09:07:00,62.7,60.0,29.51,NE,47,3.0,4.0,92,0.00,,,0.65,weatherlink.com 1.10,2013-07-11 16:07:00,
2013-07-11 09:22:00,62.1,60.0,29.51,NE,38,0.0,3.0,93,0.00,,,0.65,weatherlink.com 1.10,2013-07-11 16:22:00,
2013-07-11 09:37:00,61.6,60.0,29.51,ENE,65,2.0,4.0,94,0.00,,,0.65,weatherlink.com 1.10,2013-07-11 16:37:00,
2013-07-11 09:52:00,61.6,60.0,29.51,NE,38,3.0,4.0,95,0.00,,,0.65,weatherlink.com 1.10,2013-07-11 16:52:00,
2013-07-11 10:07:00,62.6,61.0,29.51,NE,42,3.0,4.0,93,0.00,,,0.65,weatherlink.com 1.10,2013-07-11 17:07:00,
2013-07-11 10:22:00,63.3,61.0,29.51,ENE,63,4.0,5.0,92,0.00,,,0.65,weatherlink.com 1.10,2013-07-11 17:22:00,
2013-07-11 10:37:00,62.3,60.0,29.51,NE,56,0.0,3.0,93,0.00,,,0.65,weatherlink.com 1.10,2013-07-11 17:37:00,
2013-07-11 10:52:00,64.4,62.0,29.51,ENE,68,1.0,5.0,91,0.00,,,0.65,weatherlink.com 1.10,2013-07-11 17:52:00,
2013-07-11 11:07:00,65.2,62.0,29.50,East,89,0.0,4.0,89,0.00,,,0.65,weatherlink.com 1.10,2013-07-11 18:07:00,
2013-07-11 11:22:00,65.4,62.0,29.50,ENE,61,2.0,3.0,89,0.00,,,0.65,weatherlink.com 1.10,2013-07-11 18:22:00,
2013-07-11 11:37:00,64.6,62.0,29.50,East,82,2.0,2.0,90,0.00,,,0.65,weatherlink.com 1.10,2013-07-11 18:37:00,
2013-07-11 12:07:00,64.3,61.0,29.49,NE,50,4.0,6.0,88,0.00,,,0.65,weatherlink.com 1.10,2013-07-11 19:07:00,
2013-07-11 12:37:00,65.7,62.0,29.49,ENE,58,0.0,3.0,87,0.00,,,0.65,weatherlink.com 1.10,2013-07-11 19:37:00,
2013-07-11 12:52:00,66.6,62.0,29.49,SE,131,1.0,4.0,85,0.00,,,0.65,weatherlink.com 1.10,2013-07-11 19:52:00,
2013-07-11 13:07:00,68.3,62.0,29.49,NW,307,1.0,5.0,81,0.00,,,0.65,weatherlink.com 1.10,2013-07-11 20:07:00,
2013-07-11 13:22:00,68.7,62.0,29.49,SW,224,0.0,4.0,79,0.00,,,0.65,weatherlink.com 1.10,2013-07-11 20:22:00,
2013-07-11 13:37:00,67.9,62.0,29.48,West,271,1.0,3.0,80,0.00,,,0.65,weatherlink.com 1.10,2013-07-11 20:37:00,
2013-07-11 13:52:00,67.0,61.0,29.48,WSW,242,3.0,5.0,81,0.00,,,0.00,weatherlink.com 1.10,2013-07-11 20:52:00,
2013-07-11 14:23:00,63.2,60.0,29.48,West,273,0.0,1.0,89,0.00,,,0.00,weatherlink.com 1.10,2013-07-11 21:23:00,
2013-07-11 14:38:00,62.9,60.0,29.48,North,8,3.0,4.0,90,0.00,,,0.00,weatherlink.com 1.10,2013-07-11 21:38:00,
2013-07-11 14:53:00,61.1,59.0,29.48,West,267,1.0,3.0,93,0.00,,,0.00,weatherlink.com 1.10,2013-07-11 21:53:00,
2013-07-11 15:08:00,61.3,60.0,29.47,West,269,4.0,8.0,95,0.00,,,0.00,weatherlink.com 1.10,2013-07-11 22:08:00,
2013-07-11 15:23:00,62.4,60.0,29.48,South,188,2.0,8.0,93,0.00,,,0.00,weatherlink.com 1.10,2013-07-11 22:23:00,
2013-07-11 15:38:00,62.0,60.0,29.47,North,1,1.0,3.0,93,0.00,,,0.00,weatherlink.com 1.10,2013-07-11 22:38:00,
2013-07-11 15:53:00,62.5,60.0,29.46,WSW,242,2.0,6.0,90,0.00,,,0.00,weatherlink.com 1.10,2013-07-11 22:53:00,
2013-07-11 16:08:00,62.0,60.0,29.46,NW,321,0.0,6.0,92,0.00,,,0.00,weatherlink.com 1.10,2013-07-11 23:08:00,
2013-07-11 16:23:00,61.7,60.0,29.47,SE,129,0.0,3.0,93,0.00,,,0.00,weatherlink.com 1.10,2013-07-11 23:23:00,
2013-07-11 16:38:00,62.0,60.0,29.47,SW,232,0.0,2.0,94,0.00,,,0.00,weatherlink.com 1.10,2013-07-11 23:38:00,
2013-07-11 16:53:00,62.2,61.0,29.48,SW,230,0.0,1.0,94,0.00,,,0.00,weatherlink.com 1.10,2013-07-11 23:53:00,
2013-07-11 17:08:00,62.7,61.0,29.47,WNW,297,2.0,3.0,93,0.00,,,0.00,weatherlink.com 1.10,2013-07-12 00:08:00,
2013-07-11 17:23:00,62.6,60.0,29.47,NE,44,1.0,4.0,92,0.00,,,0.00,weatherlink.com 1.10,2013-07-12 00:23:00,
2013-07-11 17:38:00,62.3,59.0,29.47,SSE,159,0.0,4.0,88,0.00,,,0.00,weatherlink.com 1.10,2013-07-12 00:38:00,
2013-07-11 17:53:00,62.9,60.0,29.47,WSW,238,2.0,4.0,89,0.00,,,0.00,weatherlink.com 1.10,2013-07-12 00:53:00,
2013-07-11 18:08:00,62.7,60.0,29.47,West,274,2.0,4.0,90,0.00,,,0.00,weatherlink.com 1.10,2013-07-12 01:08:00,
2013-07-11 18:23:00,62.0,60.0,29.48,West,262,0.0,2.0,92,0.00,,,0.00,weatherlink.com 1.10,2013-07-12 01:23:00,
2013-07-11 18:38:00,62.0,60.0,29.47,WSW,256,0.0,3.0,94,0.00,,,0.00,weatherlink.com 1.10,2013-07-12 01:38:00,
2013-07-11 18:53:00,61.4,59.0,29.47,SW,226,2.0,4.0,91,0.00,,,0.00,weatherlink.com 1.10,2013-07-12 01:53:00,
2013-07-11 19:08:00,61.5,58.0,29.48,SW,229,3.0,7.0,88,0.00,,,0.00,weatherlink.com 1.10,2013-07-12 02:08:00,
2013-07-11 19:23:00,61.4,58.0,29.48,WNW,284,1.0,6.0,89,0.00,,,0.00,weatherlink.com 1.10,2013-07-12 02:23:00,
2013-07-11 19:38:00,61.0,58.0,29.48,WSW,248,0.0,6.0,91,0.00,,,0.00,weatherlink.com 1.10,2013-07-12 02:38:00,
2013-07-11 20:08:00,60.6,58.0,29.48,SW,229,4.0,12.0,90,0.00,,,0.00,weatherlink.com 1.10,2013-07-12 03:08:00,
2013-07-11 20:23:00,59.3,58.0,29.47,West,266,4.0,10.0,94,0.00,,,0.00,weatherlink.com 1.10,2013-07-12 03:23:00,
2013-07-11 20:38:00,59.1,57.0,29.47,SW,232,6.0,10.0,93,0.00,,,0.00,weatherlink.com 1.10,2013-07-12 03:38:00,
2013-07-11 20:53:00,60.4,56.0,29.47,West,266,8.0,17.0,86,0.00,,,0.00,weatherlink.com 1.10,2013-07-12 03:53:00,
2013-07-11 21:08:00,60.7,56.0,29.48,East,86,16.0,16.0,83,0.00,,,0.00,weatherlink.com 1.10,2013-07-12 04:08:00,
2013-07-11 21:23:00,60.6,55.0,29.48,West,269,11.0,15.0,82,0.00,,,0.00,weatherlink.com 1.10,2013-07-12 04:23:00,
2013-07-11 21:38:00,60.3,55.0,29.49,SW,218,13.0,17.0,83,0.00,,,0.00,weatherlink.com 1.10,2013-07-12 04:38:00,
2013-07-11 21:53:00,60.7,55.0,29.50,NW,311,7.0,18.0,81,0.00,,,0.00,weatherlink.com 1.10,2013-07-12 04:53:00,
2013-07-11 22:08:00,60.4,55.0,29.50,WSW,253,8.0,10.0,82,0.00,,,0.00,weatherlink.com 1.10,2013-07-12 05:08:00,
2013-07-11 22:23:00,60.0,55.0,29.50,West,269,5.0,7.0,83,0.00,,,0.00,weatherlink.com 1.10,2013-07-12 05:23:00,
2013-07-11 22:38:00,60.2,55.0,29.50,West,274,6.0,11.0,83,0.00,,,0.00,weatherlink.com 1.10,2013-07-12 05:38:00,
2013-07-11 22:53:00,60.3,55.0,29.49,WSW,248,11.0,19.0,83,0.00,,,0.00,weatherlink.com 1.10,2013-07-12 05:53:00,
2013-07-11 23:08:00,60.2,55.0,29.50,West,273,10.0,19.0,82,0.00,,,0.00,weatherlink.com 1.10,2013-07-12 06:08:00,
2013-07-11 23:23:00,60.3,54.0,29.50,SW,218,7.0,14.0,81,0.00,,,0.00,weatherlink.com 1.10,2013-07-12 06:23:00,
2013-07-11 23:38:00,60.3,54.0,29.50,WSW,256,7.0,14.0,80,0.00,,,0.00,weatherlink.com 1.10,2013-07-12 06:38:00,
2013-07-11 23:53:00,60.5,54.0,29.50,SW,225,9.0,16.0,79,0.00,,,0.00,weatherlink.com 1.10,2013-07-12 06:53:00,